AE3Va

operational
NORAD ID: 64563 Int'l Des: 2025-135 Owner: ARKE Country: J
LEOCIRCULARRETROGRADESSO

AE3Vaについて

説明を読み込み中...

リアルタイム位置

3D地球を読み込み中...

次回通過

高度履歴

Altitude vs Time

uPlot chart will show altitude changes over time

軌道要素

1 64563U 25135AM 25278.30768267 .00010678 00000-0 10431-2 0 9996
2 64563 97.7520 30.9145 0002999 57.1621 302.9887 14.92556873 15855
Epoch: Oct 5, 2025 • Age: 22 hours

現在のステータス

高度 593.8 km
速度 7.57 km/s
衛星直下点 28.47°N, 126.25°E
打ち上げ日 Jun 23, 2025
運用期間 0.2 years
タイプ other

技術仕様

分類 Payload
質量 10.00 kg
乾燥質量 10.00 kg
総質量 10.00 kg
長さ 0.30 m
直径 0.20 m
スパン 0.30 m
形状 Box+ 2 pan
製造者 ARKE
バスタイプ Cubesat 6U
フェーズステータス In Orbit
所有者/国 ARKE/J

大規模コンステレーション

Loading constellations...